Data No,UTC Date,UTC Time,Latitude,Longitude,Course(deg),Temp(degC),Sal(psu)
512,2023/12/1,8:31,42-36.82N,141-36.97E,209,8.021,
513,2023/12/1,8:32,42-36.57N,141-36.89E,185,7.983,
514,2023/12/1,8:33,42-36.31N,141-36.90E,178,8.008,
515,2023/12/1,8:34,42-36.03N,141-36.91E,178,7.933,
516,2023/12/1,8:35,42-35.75N,141-36.92E,178,7.959,
517,2023/12/1,8:36,42-35.48N,141-36.93E,178,7.91,
518,2023/12/1,8:37,42-35.19N,141-36.94E,178,7.874,
519,2023/12/1,8:38,42-34.91N,141-36.95E,179,7.861,
520,2023/12/1,8:39,42-34.63N,141-36.95E,179,7.906,
521,2023/12/1,8:40,42-34.35N,141-36.96E,178,8.058,
522,2023/12/1,8:41,42-34.08N,141-36.97E,178,8.375,
523,2023/12/1,8:42,42-33.79N,141-36.98E,178,8.488,
524,2023/12/1,8:43,42-33.52N,141-36.99E,178,8.582,
525,2023/12/1,8:44,42-33.25N,141-37.00E,178,8.632,
526,2023/12/1,8:45,42-32.96N,141-37.01E,178,8.604,
527,2023/12/1,8:46,42-32.69N,141-37.01E,178,8.586,
528,2023/12/1,8:47,42-32.41N,141-37.02E,178,8.582,
529,2023/12/1,8:48,42-32.12N,141-37.03E,178,8.876,
530,2023/12/1,8:49,42-31.86N,141-37.04E,178,9.194,
531,2023/12/1,8:50,42-31.58N,141-37.05E,178,9.378,
532,2023/12/1,8:51,42-31.29N,141-37.06E,178,9.482,
533,2023/12/1,8:52,42-31.02N,141-37.07E,178,9.666,
534,2023/12/1,8:53,42-30.75N,141-37.08E,178,9.731,
535,2023/12/1,8:54,42-30.48N,141-37.09E,178,9.723,
536,2023/12/1,8:55,42-30.19N,141-37.10E,178,9.695,
537,2023/12/1,8:56,42-29.92N,141-37.11E,178,9.669,
538,2023/12/1,8:57,42-29.64N,141-37.11E,178,9.682,
539,2023/12/1,8:58,42-29.36N,141-37.12E,178,9.681,
540,2023/12/1,8:59,42-29.09N,141-37.13E,178,9.672,
541,2023/12/1,9:00,42-28.81N,141-37.14E,178,9.691,
542,2023/12/1,9:01,42-28.54N,141-37.15E,178,9.707,
543,2023/12/1,9:02,42-28.26N,141-37.16E,178,9.707,
544,2023/12/1,9:03,42-27.97N,141-37.16E,179,9.766,
545,2023/12/1,9:04,42-27.70N,141-37.17E,179,9.804,
546,2023/12/1,9:05,42-27.42N,141-37.17E,180,9.84,
547,2023/12/1,9:06,42-27.14N,141-37.15E,184,9.885,
548,2023/12/1,9:07,42-26.87N,141-37.10E,188,10.055,
549,2023/12/1,9:08,42-26.58N,141-37.04E,188,10.144,
550,2023/12/1,9:09,42-26.32N,141-36.99E,188,10.239,
551,2023/12/1,9:10,42-26.04N,141-36.93E,188,10.289,
552,2023/12/1,9:11,42-25.77N,141-36.88E,188,10.33,
553,2023/12/1,9:12,42-25.48N,141-36.82E,187,10.459,
554,2023/12/1,9:13,42-25.21N,141-36.78E,185,10.499,
555,2023/12/1,9:14,42-24.93N,141-36.75E,183,10.532,
556,2023/12/1,9:15,42-24.65N,141-36.73E,183,10.558,
557,2023/12/1,9:16,42-24.38N,141-36.70E,183,10.615,
558,2023/12/1,9:17,42-24.09N,141-36.68E,184,10.665,
559,2023/12/1,9:18,42-23.82N,141-36.65E,184,10.68,
560,2023/12/1,9:19,42-23.54N,141-36.62E,185,10.676,
561,2023/12/1,9:20,42-23.25N,141-36.58E,184,10.673,
562,2023/12/1,9:21,42-22.97N,141-36.55E,185,10.676,
563,2023/12/1,9:22,42-22.69N,141-36.52E,185,10.676,
564,2023/12/1,9:23,42-22.41N,141-36.48E,185,10.649,
565,2023/12/1,9:24,42-22.13N,141-36.45E,185,10.613,
566,2023/12/1,9:25,42-21.84N,141-36.41E,185,10.592,
567,2023/12/1,9:26,42-21.56N,141-36.37E,185,10.524,
568,2023/12/1,9:27,42-21.28N,141-36.34E,185,10.502,
569,2023/12/1,9:28,42-20.99N,141-36.30E,185,10.503,
570,2023/12/1,9:29,42-20.71N,141-36.27E,185,10.482,
571,2023/12/1,9:30,42-20.42N,141-36.23E,185,10.472,
572,2023/12/1,9:31,42-20.14N,141-36.19E,185,10.46,
573,2023/12/1,9:32,42-19.86N,141-36.16E,185,10.455,
574,2023/12/1,9:33,42-19.57N,141-36.12E,185,10.46,
575,2023/12/1,9:34,42-19.30N,141-36.08E,185,10.479,
576,2023/12/1,9:35,42-19.01N,141-36.05E,185,10.557,
577,2023/12/1,9:36,42-18.73N,141-36.01E,185,10.663,
578,2023/12/1,9:37,42-18.46N,141-35.98E,185,10.79,
579,2023/12/1,9:38,42-18.17N,141-35.94E,184,10.922,
580,2023/12/1,9:39,42-17.89N,141-35.91E,184,10.987,
581,2023/12/1,9:40,42-17.61N,141-35.89E,184,10.977,
582,2023/12/1,9:41,42-17.32N,141-35.86E,183,10.986,
583,2023/12/1,9:42,42-17.05N,141-35.84E,183,10.988,
584,2023/12/1,9:43,42-16.76N,141-35.81E,183,10.969,
585,2023/12/1,9:44,42-16.48N,141-35.79E,183,10.927,
586,2023/12/1,9:45,42-16.20N,141-35.77E,183,10.88,
587,2023/12/1,9:46,42-15.91N,141-35.74E,183,10.839,
588,2023/12/1,9:47,42-15.64N,141-35.72E,183,10.78,
589,2023/12/1,9:48,42-15.35N,141-35.70E,183,10.674,
590,2023/12/1,9:49,42-15.07N,141-35.68E,183,10.607,
591,2023/12/1,9:50,42-14.79N,141-35.66E,182,10.59,
592,2023/12/1,9:51,42-14.51N,141-35.65E,182,10.6,
593,2023/12/1,9:52,42-14.23N,141-35.63E,182,10.639,
594,2023/12/1,9:53,42-13.94N,141-35.61E,182,10.676,
595,2023/12/1,9:54,42-13.67N,141-35.60E,182,10.761,
596,2023/12/1,9:55,42-13.38N,141-35.58E,182,10.752,
597,2023/12/1,9:56,42-13.11N,141-35.57E,181,10.723,
598,2023/12/1,9:57,42-12.83N,141-35.56E,181,10.687,
599,2023/12/1,9:58,42-12.54N,141-35.55E,181,10.654,
600,2023/12/1,9:59,42-12.27N,141-35.54E,181,10.614,
601,2023/12/1,10:00,42-11.99N,141-35.53E,181,10.579,
602,2023/12/1,10:01,42-11.71N,141-35.51E,181,10.553,
603,2023/12/1,10:02,42-11.44N,141-35.50E,181,10.52,
604,2023/12/1,10:03,42-11.15N,141-35.49E,182,10.458,
605,2023/12/1,10:04,42-10.87N,141-35.48E,181,10.36,
606,2023/12/1,10:05,42-10.60N,141-35.47E,181,10.31,
607,2023/12/1,10:06,42-10.29N,141-35.45E,182,10.346,
608,2023/12/1,10:07,42-10.00N,141-35.44E,181,10.406,
609,2023/12/1,10:08,42-09.74N,141-35.43E,181,10.432,
610,2023/12/1,10:09,42-09.47N,141-35.43E,181,10.393,
611,2023/12/1,10:10,42-09.19N,141-35.42E,180,10.296,
612,2023/12/1,10:11,42-08.92N,141-35.41E,181,10.243,
613,2023/12/1,10:12,42-08.65N,141-35.40E,181,10.2,
614,2023/12/1,10:13,42-08.36N,141-35.40E,180,10.139,
615,2023/12/1,10:14,42-08.10N,141-35.39E,181,10.092,
616,2023/12/1,10:15,42-07.82N,141-35.39E,179,10.088,
617,2023/12/1,10:16,42-07.55N,141-35.39E,180,10.108,
618,2023/12/1,10:17,42-07.32N,141-35.39E,181,10.137,
619,2023/12/1,10:18,42-07.04N,141-35.39E,180,10.176,
620,2023/12/1,10:19,42-06.72N,141-35.38E,180,10.216,
621,2023/12/1,10:20,42-06.45N,141-35.38E,181,10.238,
622,2023/12/1,10:21,42-06.18N,141-35.37E,180,10.512,
623,2023/12/1,10:22,42-05.95N,141-35.37E,180,10.792,
624,2023/12/1,10:23,42-05.69N,141-35.37E,180,10.906,
625,2023/12/1,10:24,42-05.42N,141-35.37E,180,10.999,
626,2023/12/1,10:25,42-05.13N,141-35.36E,180,11.05,
627,2023/12/1,10:26,42-04.86N,141-35.36E,180,11.096,
628,2023/12/1,10:27,42-04.59N,141-35.35E,181,11.118,
629,2023/12/1,10:28,42-04.31N,141-35.34E,181,11.126,
630,2023/12/1,10:29,42-04.08N,141-35.34E,181,11.137,
631,2023/12/1,10:30,42-03.81N,141-35.33E,180,11.143,
632,2023/12/1,10:31,42-03.53N,141-35.33E,180,11.151,
633,2023/12/1,10:32,42-03.27N,141-35.32E,181,11.154,
634,2023/12/1,10:33,42-02.99N,141-35.31E,181,11.159,
635,2023/12/1,10:34,42-02.72N,141-35.30E,181,11.175,
636,2023/12/1,10:35,42-02.45N,141-35.29E,181,11.2,
637,2023/12/1,10:36,42-02.19N,141-35.28E,181,11.23,
638,2023/12/1,10:37,42-01.92N,141-35.27E,181,11.253,
639,2023/12/1,10:38,42-01.64N,141-35.26E,181,11.261,
640,2023/12/1,10:39,42-01.38N,141-35.26E,181,11.249,
641,2023/12/1,10:40,42-01.10N,141-35.25E,181,11.229,
642,2023/12/1,10:41,42-00.80N,141-35.24E,181,11.188,
643,2023/12/1,10:42,42-00.53N,141-35.23E,181,11.134,
644,2023/12/1,10:43,42-00.26N,141-35.22E,181,11.091,
645,2023/12/1,10:44,42-00.02N,141-35.21E,181,11.065,
646,2023/12/1,10:45,41-59.74N,141-35.21E,180,11.044,
647,2023/12/1,10:46,41-59.48N,141-35.21E,179,11.021,
648,2023/12/1,10:47,41-59.21N,141-35.21E,179,10.987,
649,2023/12/1,10:48,41-58.93N,141-35.22E,179,10.964,
650,2023/12/1,10:49,41-58.65N,141-35.22E,180,10.946,
651,2023/12/1,10:50,41-58.39N,141-35.22E,180,10.934,
652,2023/12/1,10:51,41-58.11N,141-35.21E,180,10.931,
653,2023/12/1,10:52,41-57.85N,141-35.22E,179,10.925,
654,2023/12/1,10:53,41-57.58N,141-35.22E,180,10.924,
655,2023/12/1,10:54,41-57.30N,141-35.22E,179,10.923,
656,2023/12/1,10:55,41-57.04N,141-35.22E,179,10.923,
657,2023/12/1,10:56,41-56.77N,141-35.22E,180,10.922,
658,2023/12/1,10:57,41-56.50N,141-35.22E,180,10.922,
659,2023/12/1,10:58,41-56.23N,141-35.22E,179,10.923,
660,2023/12/1,10:59,41-55.96N,141-35.22E,179,10.926,
661,2023/12/1,11:00,41-55.70N,141-35.22E,179,10.932,
662,2023/12/1,11:01,41-55.42N,141-35.23E,179,10.934,
663,2023/12/1,11:02,41-55.17N,141-35.23E,179,10.934,
664,2023/12/1,11:03,41-54.89N,141-35.23E,179,10.933,
665,2023/12/1,11:04,41-54.62N,141-35.24E,179,10.933,
666,2023/12/1,11:05,41-54.36N,141-35.24E,179,10.932,
667,2023/12/1,11:06,41-54.09N,141-35.25E,179,10.926,
668,2023/12/1,11:07,41-53.83N,141-35.25E,179,10.921,
669,2023/12/1,11:08,41-53.56N,141-35.26E,179,10.917,
670,2023/12/1,11:09,41-53.30N,141-35.26E,179,10.912,
671,2023/12/1,11:10,41-53.03N,141-35.27E,179,10.906,
672,2023/12/1,11:11,41-52.75N,141-35.28E,179,10.902,
673,2023/12/1,11:12,41-52.49N,141-35.28E,179,10.891,
674,2023/12/1,11:13,41-52.22N,141-35.29E,179,10.883,
675,2023/12/1,11:14,41-51.95N,141-35.29E,179,10.878,
676,2023/12/1,11:15,41-51.68N,141-35.29E,179,10.864,
677,2023/12/1,11:16,41-51.40N,141-35.29E,180,10.87,
678,2023/12/1,11:17,41-51.13N,141-35.29E,180,10.938,
679,2023/12/1,11:18,41-50.86N,141-35.29E,180,10.891,
680,2023/12/1,11:19,41-50.58N,141-35.29E,179,10.799,
681,2023/12/1,11:20,41-50.31N,141-35.29E,180,10.716,
682,2023/12/1,11:21,41-50.03N,141-35.30E,178,10.636,
683,2023/12/1,11:22,41-49.76N,141-35.31E,179,10.644,
684,2023/12/1,11:23,41-49.46N,141-35.32E,178,10.668,
685,2023/12/1,11:24,41-49.19N,141-35.32E,178,10.715,
686,2023/12/1,11:25,41-48.91N,141-35.33E,178,11.006,
687,2023/12/1,11:26,41-48.64N,141-35.34E,177,11.239,
688,2023/12/1,11:27,41-48.36N,141-35.35E,180,11.287,
689,2023/12/1,11:28,41-48.08N,141-35.34E,183,11.31,
690,2023/12/1,11:29,41-47.81N,141-35.32E,184,11.383,
691,2023/12/1,11:30,41-47.52N,141-35.29E,184,11.479,
692,2023/12/1,11:31,41-47.24N,141-35.26E,185,11.661,
693,2023/12/1,11:32,41-46.98N,141-35.23E,182,11.905,
694,2023/12/1,11:33,41-46.70N,141-35.22E,181,12.009,
695,2023/12/1,11:34,41-46.42N,141-35.21E,181,12.112,
696,2023/12/1,11:35,41-46.14N,141-35.20E,182,12.194,
697,2023/12/1,11:36,41-45.86N,141-35.19E,181,12.188,
698,2023/12/1,11:37,41-45.59N,141-35.19E,180,12.139,
699,2023/12/1,11:38,41-45.31N,141-35.18E,181,12.144,
700,2023/12/1,11:39,41-45.04N,141-35.17E,181,12.14,
701,2023/12/1,11:40,41-44.76N,141-35.16E,182,12.118,
702,2023/12/1,11:41,41-44.48N,141-35.15E,180,12.047,
703,2023/12/1,11:42,41-44.21N,141-35.16E,178,12.177,
704,2023/12/1,11:43,41-43.93N,141-35.16E,180,12.712,
705,2023/12/1,11:44,41-43.64N,141-35.15E,182,13.097,
706,2023/12/1,11:45,41-43.37N,141-35.13E,182,13.311,
707,2023/12/1,11:46,41-43.09N,141-35.12E,182,13.434,
708,2023/12/1,11:47,41-42.81N,141-35.11E,181,13.485,
709,2023/12/1,11:48,41-42.53N,141-35.10E,181,13.467,
710,2023/12/1,11:49,41-42.24N,141-35.09E,181,13.483,
711,2023/12/1,11:50,41-41.96N,141-35.09E,181,13.491,
712,2023/12/1,11:51,41-41.67N,141-35.08E,180,13.564,
713,2023/12/1,11:52,41-41.38N,141-35.08E,180,13.687,
714,2023/12/1,11:53,41-41.10N,141-35.07E,180,13.736,
715,2023/12/1,11:54,41-40.82N,141-35.07E,180,13.792,
716,2023/12/1,11:55,41-40.52N,141-35.08E,179,13.784,
717,2023/12/1,11:56,41-40.22N,141-35.08E,179,13.693,
718,2023/12/1,11:57,41-39.95N,141-35.09E,179,13.65,
719,2023/12/1,11:58,41-39.65N,141-35.10E,177,13.71,
720,2023/12/1,11:59,41-39.37N,141-35.12E,177,13.754,
721,2023/12/1,12:00,41-39.08N,141-35.13E,179,13.792,
722,2023/12/1,12:01,41-38.79N,141-35.13E,179,13.804,
723,2023/12/1,12:02,41-38.50N,141-35.14E,179,13.807,
724,2023/12/1,12:03,41-38.21N,141-35.14E,179,13.83,
725,2023/12/1,12:04,41-37.92N,141-35.15E,179,13.861,
726,2023/12/1,12:05,41-37.63N,141-35.15E,179,13.904,
727,2023/12/1,12:06,41-37.33N,141-35.15E,179,13.903,
728,2023/12/1,12:07,41-37.04N,141-35.16E,179,13.916,
729,2023/12/1,12:08,41-36.75N,141-35.16E,180,13.93,
730,2023/12/1,12:09,41-36.45N,141-35.16E,179,13.945,
731,2023/12/1,12:10,41-36.17N,141-35.16E,179,13.93,
732,2023/12/1,12:11,41-35.86N,141-35.16E,180,13.919,
733,2023/12/1,12:12,41-35.58N,141-35.15E,180,13.92,
734,2023/12/1,12:13,41-35.28N,141-35.16E,178,13.918,
735,2023/12/1,12:14,41-34.99N,141-35.18E,177,13.91,
736,2023/12/1,12:15,41-34.70N,141-35.19E,177,13.901,
737,2023/12/1,12:16,41-34.40N,141-35.21E,178,13.893,
738,2023/12/1,12:17,41-34.10N,141-35.22E,178,13.893,
739,2023/12/1,12:18,41-33.81N,141-35.23E,177,13.9,
740,2023/12/1,12:19,41-33.52N,141-35.25E,178,13.926,
741,2023/12/1,12:20,41-33.21N,141-35.26E,178,13.95,
742,2023/12/1,12:21,41-32.90N,141-35.27E,178,13.954,
743,2023/12/1,12:22,41-32.63N,141-35.28E,178,13.987,
744,2023/12/1,12:23,41-32.33N,141-35.29E,179,14.02,
745,2023/12/1,12:24,41-32.01N,141-35.30E,178,14.081,
746,2023/12/1,12:25,41-31.74N,141-35.31E,178,14.126,
747,2023/12/1,12:26,41-31.43N,141-35.32E,178,14.159,
748,2023/12/1,12:27,41-31.14N,141-35.33E,179,14.224,
749,2023/12/1,12:28,41-30.83N,141-35.34E,178,14.304,
750,2023/12/1,12:29,41-30.53N,141-35.34E,179,14.341,
751,2023/12/1,12:30,41-30.24N,141-35.35E,179,14.349,
752,2023/12/1,12:31,41-29.93N,141-35.35E,180,14.331,
753,2023/12/1,12:32,41-29.64N,141-35.34E,180,14.303,
754,2023/12/1,12:33,41-29.34N,141-35.35E,179,14.276,
755,2023/12/1,12:34,41-29.03N,141-35.34E,180,14.248,
756,2023/12/1,12:35,41-28.74N,141-35.34E,181,14.244,
757,2023/12/1,12:36,41-28.44N,141-35.34E,180,14.187,
758,2023/12/1,12:37,41-28.14N,141-35.34E,179,14.141,
759,2023/12/1,12:38,41-27.86N,141-35.35E,178,14.136,
760,2023/12/1,12:39,41-27.58N,141-35.36E,178,14.251,
761,2023/12/1,12:40,41-27.30N,141-35.37E,178,14.299,
762,2023/12/1,12:41,41-27.02N,141-35.37E,178,14.364,
763,2023/12/1,12:42,41-26.74N,141-35.38E,178,14.376,
764,2023/12/1,12:43,41-26.47N,141-35.39E,179,14.378,
765,2023/12/1,12:44,41-26.19N,141-35.39E,179,14.379,
766,2023/12/1,12:45,41-25.91N,141-35.39E,180,14.404,
767,2023/12/1,12:46,41-25.63N,141-35.40E,179,14.415,
768,2023/12/1,12:47,41-25.36N,141-35.40E,178,14.408,
769,2023/12/1,12:48,41-25.08N,141-35.44E,172,14.398,
770,2023/12/1,12:49,41-24.81N,141-35.51E,167,14.4,
771,2023/12/1,12:50,41-24.54N,141-35.59E,166,14.4,
772,2023/12/1,12:51,41-24.27N,141-35.69E,165,14.394,
773,2023/12/1,12:52,41-23.99N,141-35.78E,166,14.422,
774,2023/12/1,12:53,41-23.73N,141-35.86E,165,14.438,
775,2023/12/1,12:54,41-23.46N,141-35.95E,165,14.543,
776,2023/12/1,12:55,41-23.20N,141-36.04E,166,14.624,
777,2023/12/1,12:56,41-22.92N,141-36.13E,166,14.657,
778,2023/12/1,12:57,41-22.66N,141-36.22E,165,14.673,
779,2023/12/1,12:58,41-22.39N,141-36.31E,165,14.68,
780,2023/12/1,12:59,41-22.13N,141-36.40E,165,14.671,
781,2023/12/1,13:00,41-21.86N,141-36.49E,165,14.668,
782,2023/12/1,13:01,41-21.59N,141-36.59E,165,14.657,
783,2023/12/1,13:02,41-21.32N,141-36.67E,166,14.643,
784,2023/12/1,13:03,41-21.06N,141-36.76E,166,14.633,
785,2023/12/1,13:04,41-20.79N,141-36.85E,165,14.619,
786,2023/12/1,13:05,41-20.51N,141-36.95E,165,14.606,
787,2023/12/1,13:06,41-20.25N,141-37.04E,165,14.603,
788,2023/12/1,13:07,41-19.98N,141-37.14E,164,14.597,
789,2023/12/1,13:08,41-19.72N,141-37.23E,164,14.607,
790,2023/12/1,13:09,41-19.45N,141-37.33E,164,14.603,
791,2023/12/1,13:10,41-19.18N,141-37.42E,165,14.604,
792,2023/12/1,13:11,41-18.92N,141-37.52E,165,14.595,
793,2023/12/1,13:12,41-18.65N,141-37.61E,165,14.584,
794,2023/12/1,13:13,41-18.38N,141-37.70E,165,14.573,
795,2023/12/1,13:14,41-18.12N,141-37.80E,165,14.562,
796,2023/12/1,13:15,41-17.85N,141-37.89E,165,14.545,
797,2023/12/1,13:16,41-17.54N,141-37.99E,166,14.522,
798,2023/12/1,13:17,41-17.32N,141-38.07E,165,14.499,
799,2023/12/1,13:18,41-17.05N,141-38.16E,165,14.476,
800,2023/12/1,13:19,41-16.78N,141-38.26E,164,14.449,
801,2023/12/1,13:20,41-16.52N,141-38.35E,164,14.447,
802,2023/12/1,13:21,41-16.25N,141-38.45E,165,14.46,
803,2023/12/1,13:22,41-15.99N,141-38.54E,164,14.474,
804,2023/12/1,13:23,41-15.73N,141-38.64E,163,14.482,
805,2023/12/1,13:24,41-15.46N,141-38.74E,164,14.488,
806,2023/12/1,13:25,41-15.20N,141-38.83E,164,14.499,
807,2023/12/1,13:26,41-14.93N,141-38.93E,165,14.498,
808,2023/12/1,13:27,41-14.68N,141-39.02E,165,14.505,
809,2023/12/1,13:28,41-14.42N,141-39.12E,164,14.507,
810,2023/12/1,13:29,41-14.15N,141-39.22E,164,14.504,
811,2023/12/1,13:30,41-13.89N,141-39.31E,164,14.509,
812,2023/12/1,13:31,41-13.63N,141-39.41E,164,14.508,
813,2023/12/1,13:32,41-13.37N,141-39.51E,164,14.502,
814,2023/12/1,13:33,41-13.11N,141-39.60E,165,14.505,
815,2023/12/1,13:34,41-12.84N,141-39.69E,164,14.495,
816,2023/12/1,13:35,41-12.53N,141-39.80E,165,14.493,
817,2023/12/1,13:36,41-12.27N,141-39.89E,164,14.485,
818,2023/12/1,13:37,41-12.01N,141-39.98E,165,14.474,
819,2023/12/1,13:38,41-11.75N,141-40.09E,163,14.462,
820,2023/12/1,13:39,41-11.52N,141-40.17E,165,14.473,
821,2023/12/1,13:40,41-11.21N,141-40.28E,164,14.477,
822,2023/12/1,13:41,41-10.96N,141-40.37E,164,14.496,
823,2023/12/1,13:42,41-10.71N,141-40.47E,164,14.494,
824,2023/12/1,13:43,41-10.44N,141-40.56E,165,14.495,
825,2023/12/1,13:44,41-10.18N,141-40.66E,164,14.497,
826,2023/12/1,13:45,41-09.93N,141-40.75E,165,14.497,
827,2023/12/1,13:46,41-09.69N,141-40.83E,165,14.501,
828,2023/12/1,13:47,41-09.44N,141-40.92E,165,14.508,
829,2023/12/1,13:48,41-09.18N,141-41.01E,165,14.514,
830,2023/12/1,13:49,41-08.91N,141-41.10E,165,14.52,
831,2023/12/1,13:50,41-08.65N,141-41.19E,166,14.521,
832,2023/12/1,13:51,41-08.36N,141-41.29E,165,14.521,
833,2023/12/1,13:52,41-08.12N,141-41.37E,166,14.524,
834,2023/12/1,13:53,41-07.86N,141-41.45E,166,14.525,
835,2023/12/1,13:54,41-07.60N,141-41.54E,166,14.526,
836,2023/12/1,13:55,41-07.34N,141-41.63E,166,14.522,
837,2023/12/1,13:56,41-07.07N,141-41.71E,166,14.524,
838,2023/12/1,13:57,41-06.81N,141-41.80E,166,14.523,
839,2023/12/1,13:58,41-06.54N,141-41.88E,167,14.527,
840,2023/12/1,13:59,41-06.28N,141-41.96E,167,14.528,
841,2023/12/1,14:00,41-06.01N,141-42.05E,166,14.527,
842,2023/12/1,14:01,41-05.75N,141-42.13E,167,14.534,
843,2023/12/1,14:02,41-05.48N,141-42.21E,167,14.532,
844,2023/12/1,14:03,41-05.22N,141-42.29E,167,14.529,
845,2023/12/1,14:04,41-04.95N,141-42.37E,167,14.527,
846,2023/12/1,14:05,41-04.69N,141-42.44E,167,14.527,
847,2023/12/1,14:06,41-04.42N,141-42.52E,167,14.524,
848,2023/12/1,14:07,41-04.16N,141-42.60E,167,14.522,
849,2023/12/1,14:08,41-03.90N,141-42.69E,166,14.522,
850,2023/12/1,14:09,41-03.64N,141-42.77E,166,14.523,
851,2023/12/1,14:10,41-03.38N,141-42.85E,167,14.525,
852,2023/12/1,14:11,41-03.11N,141-42.93E,166,14.528,
853,2023/12/1,14:12,41-02.85N,141-43.02E,165,14.526,
854,2023/12/1,14:13,41-02.60N,141-43.12E,164,14.521,
855,2023/12/1,14:14,41-02.33N,141-43.22E,164,14.51,
856,2023/12/1,14:15,41-02.08N,141-43.32E,164,14.506,
857,2023/12/1,14:16,41-01.78N,141-43.43E,164,14.505,
858,2023/12/1,14:17,41-01.51N,141-43.52E,165,14.491,
859,2023/12/1,14:18,41-01.29N,141-43.60E,164,14.476,
860,2023/12/1,14:19,41-01.04N,141-43.70E,164,14.464,
861,2023/12/1,14:20,41-00.77N,141-43.80E,164,14.447,
862,2023/12/1,14:21,41-00.51N,141-43.88E,165,14.439,
863,2023/12/1,14:22,41-00.26N,141-43.98E,165,14.434,
864,2023/12/1,14:23,41-00.00N,141-44.07E,164,14.412,
865,2023/12/1,14:24,40-59.74N,141-44.16E,165,14.394,
866,2023/12/1,14:25,40-59.49N,141-44.25E,164,14.378,
867,2023/12/1,14:26,40-59.22N,141-44.35E,164,14.377,
868,2023/12/1,14:27,40-58.97N,141-44.44E,165,14.392,
869,2023/12/1,14:28,40-58.71N,141-44.53E,164,14.409,
870,2023/12/1,14:29,40-58.44N,141-44.63E,164,14.414,
871,2023/12/1,14:30,40-58.20N,141-44.72E,164,14.414,
872,2023/12/1,14:31,40-57.94N,141-44.81E,164,14.425,
873,2023/12/1,14:32,40-57.68N,141-44.91E,164,14.41,
874,2023/12/1,14:33,40-57.44N,141-44.99E,167,14.386,
875,2023/12/1,14:34,40-57.13N,141-45.08E,167,14.368,
876,2023/12/1,14:35,40-56.87N,141-45.15E,168,14.375,
877,2023/12/1,14:36,40-56.65N,141-45.21E,168,14.388,
878,2023/12/1,14:37,40-56.36N,141-45.29E,168,14.394,
879,2023/12/1,14:38,40-56.09N,141-45.37E,167,14.401,
880,2023/12/1,14:39,40-55.86N,141-45.44E,167,14.404,
881,2023/12/1,14:40,40-55.62N,141-45.50E,168,14.403,
882,2023/12/1,14:41,40-55.32N,141-45.59E,168,14.405,
883,2023/12/1,14:42,40-55.06N,141-45.66E,168,14.403,
884,2023/12/1,14:43,40-54.80N,141-45.74E,167,14.399,
885,2023/12/1,14:44,40-54.52N,141-45.81E,168,14.404,
886,2023/12/1,14:45,40-54.32N,141-45.87E,167,14.406,
887,2023/12/1,14:46,40-54.01N,141-45.96E,168,14.41,
888,2023/12/1,14:47,40-53.76N,141-46.03E,167,14.407,
889,2023/12/1,14:48,40-53.50N,141-46.10E,167,14.417,
890,2023/12/1,14:49,40-53.23N,141-46.18E,167,14.419,
891,2023/12/1,14:50,40-52.98N,141-46.26E,167,14.415,
892,2023/12/1,14:51,40-52.72N,141-46.33E,168,14.42,
893,2023/12/1,14:52,40-52.49N,141-46.40E,167,14.418,
894,2023/12/1,14:53,40-52.20N,141-46.49E,166,14.401,
895,2023/12/1,14:54,40-51.93N,141-46.57E,167,14.399,
896,2023/12/1,14:55,40-51.67N,141-46.65E,167,14.403,
897,2023/12/1,14:56,40-51.40N,141-46.72E,167,14.402,
898,2023/12/1,14:57,40-51.14N,141-46.80E,167,14.409,
899,2023/12/1,14:58,40-50.88N,141-46.88E,167,14.416,
900,2023/12/1,14:59,40-50.61N,141-46.96E,167,14.419,
901,2023/12/1,15:00,40-50.34N,141-47.04E,167,14.417,
902,2023/12/1,15:01,40-50.07N,141-47.12E,167,14.421,
903,2023/12/1,15:02,40-49.81N,141-47.20E,167,14.416,
904,2023/12/1,15:03,40-49.54N,141-47.28E,167,14.414,
905,2023/12/1,15:04,40-49.27N,141-47.35E,167,14.422,
906,2023/12/1,15:05,40-49.01N,141-47.43E,167,14.427,
907,2023/12/1,15:06,40-48.73N,141-47.52E,167,14.428,
908,2023/12/1,15:07,40-48.48N,141-47.59E,167,14.436,
909,2023/12/1,15:08,40-48.21N,141-47.68E,166,14.444,
910,2023/12/1,15:09,40-47.94N,141-47.76E,167,14.444,
911,2023/12/1,15:10,40-47.67N,141-47.84E,166,14.437,
912,2023/12/1,15:11,40-47.40N,141-47.92E,166,14.439,
913,2023/12/1,15:12,40-47.14N,141-48.00E,167,14.437,
914,2023/12/1,15:13,40-46.87N,141-48.08E,168,14.442,
915,2023/12/1,15:14,40-46.59N,141-48.16E,167,14.447,
916,2023/12/1,15:15,40-46.33N,141-48.24E,167,14.443,
917,2023/12/1,15:16,40-46.06N,141-48.31E,168,14.437,
918,2023/12/1,15:17,40-45.77N,141-48.40E,167,14.424,
919,2023/12/1,15:18,40-45.51N,141-48.48E,167,14.415,
920,2023/12/1,15:19,40-45.24N,141-48.56E,168,14.406,
921,2023/12/1,15:20,40-44.97N,141-48.63E,167,14.394,
922,2023/12/1,15:21,40-44.69N,141-48.71E,167,14.383,
923,2023/12/1,15:22,40-44.42N,141-48.79E,167,14.375,
924,2023/12/1,15:23,40-44.15N,141-48.87E,167,14.368,
925,2023/12/1,15:24,40-43.89N,141-48.95E,167,14.361,
926,2023/12/1,15:25,40-43.63N,141-49.02E,167,14.357,
927,2023/12/1,15:26,40-43.36N,141-49.10E,167,14.346,
928,2023/12/1,15:27,40-43.09N,141-49.18E,167,14.338,
929,2023/12/1,15:28,40-42.81N,141-49.26E,167,14.322,
930,2023/12/1,15:29,40-42.53N,141-49.34E,167,14.311,
931,2023/12/1,15:30,40-42.26N,141-49.42E,167,14.3,
932,2023/12/1,15:31,40-41.99N,141-49.50E,167,14.289,
933,2023/12/1,15:32,40-41.71N,141-49.58E,167,14.275,
934,2023/12/1,15:33,40-41.43N,141-49.66E,167,14.271,
935,2023/12/1,15:34,40-41.15N,141-49.74E,167,14.268,
936,2023/12/1,15:35,40-40.88N,141-49.82E,167,14.258,
937,2023/12/1,15:36,40-40.60N,141-49.90E,167,14.25,
938,2023/12/1,15:37,40-40.31N,141-49.99E,166,14.243,
939,2023/12/1,15:38,40-40.05N,141-50.07E,166,14.241,
940,2023/12/1,15:39,40-39.76N,141-50.16E,166,14.239,
941,2023/12/1,15:40,40-39.49N,141-50.25E,165,14.28,
942,2023/12/1,15:41,40-39.22N,141-50.34E,166,14.347,
943,2023/12/1,15:42,40-38.94N,141-50.43E,166,14.391,
944,2023/12/1,15:43,40-38.67N,141-50.51E,166,14.409,
945,2023/12/1,15:44,40-38.39N,141-50.60E,166,14.414,
946,2023/12/1,15:45,40-38.11N,141-50.69E,166,14.395,
947,2023/12/1,15:46,40-37.85N,141-50.78E,165,14.377,
948,2023/12/1,15:47,40-37.57N,141-50.87E,166,14.389,
949,2023/12/1,15:48,40-37.30N,141-50.94E,169,14.408,
950,2023/12/1,15:49,40-37.02N,141-51.01E,169,14.421,
951,2023/12/1,15:50,40-36.75N,141-51.08E,169,14.429,
952,2023/12/1,15:51,40-36.47N,141-51.14E,169,14.421,
953,2023/12/1,15:52,40-36.19N,141-51.21E,170,14.442,
954,2023/12/1,15:53,40-35.92N,141-51.27E,169,14.461,
955,2023/12/1,15:54,40-35.64N,141-51.34E,168,14.469,
956,2023/12/1,15:55,40-35.37N,141-51.41E,168,14.47,
957,2023/12/1,15:56,40-35.09N,141-51.48E,169,14.468,